User: anonymous   Login
Location: Newark
(11.5710°N, 104.9241°E)
Time: 00:40:34
(UTC+00:00)
Language:

Gurwin Techsat 1B - Orbit

View from above orbital plane
View from above orbital plane
View from above satellite
View from above satellite

Ground track
Ground track

The orbit data is extracted from the following two-line orbital elements,

1 25397U 98043D   20093.47256263 -.00000007  00000-0  16425-4 0  9999
2 25397  98.7217  35.5755 0000327 331.1988  28.9172 14.23682032128963
Epoch (UTC): 02 April 2020 11:20:29
Eccentricity: 0.0000327
inclination: 98.7217°
perigee height: 812 km
apogee height: 813 km
right ascension of ascending node: 35.5755°
argument of perigee: 331.1988°
revolutions per day: 14.23682032
mean anomaly at epoch: 28.9172°
orbit number at epoch: 12896

The dashed part of the orbit path shows where the satellite is in the earth's shadow,  

DLR